Location: Vancouver
(49.2500°N, 123.1330°W)
Time: 19:29:14
(UTC-07:00)

ISS - All Passes

Search period start: 26 May 2017 00:00
Search period end: 05 June 2017 00:00
Orbit: 402 x 408 km, 51.6° (Epoch: 27 May)

Date Brightness Start Highest point End Pass type
(mag) Time Alt. Az. Time Alt. Az. Time Alt. Az.
26 May - 00:30:59 10° W 00:34:15 54° N 00:37:29 10° ENE visible
26 May - 02:07:38 10° WNW 02:10:56 83° NNE 02:14:13 10° ESE visible
26 May - 03:44:25 10° W 03:47:11 25° SW 03:49:57 10° SSE visible
26 May - 20:28:48 10° SSE 20:29:43 11° SE 20:30:40 10° ESE daylight
26 May - 22:02:24 10° SW 22:05:37 52° SSE 22:08:51 10° ENE visible
26 May - 23:38:52 10° W 23:42:08 59° N 23:45:24 10° ENE visible
27 May - 01:15:35 10° WNW 01:18:52 65° NNE 01:22:09 10° E visible
27 May - 02:52:11 10° WNW 02:55:18 40° SSW 02:58:23 10° SE visible
27 May - 21:10:40 10° SSW 21:13:41 33° SSE 21:16:42 10° E daylight
27 May - 22:46:45 10° W 22:50:03 71° NNW 22:53:21 10° ENE visible
28 May - 00:23:30 10° WNW 00:26:46 56° N 00:30:01 10° E visible
28 May - 02:00:04 10° WNW 02:03:20 62° SSW 02:06:35 10° SE visible
28 May - 03:37:37 10° WSW 03:39:18 13° SW 03:40:58 10° SSW visible
28 May - 20:19:12 10° SSW 20:21:47 21° SE 20:24:23 10° E daylight
28 May - 21:54:39 10° WSW 21:57:58 88° SSE 22:01:16 10° ENE visible
28 May - 23:31:23 10° W 23:34:38 53° N 23:37:52 10° E visible
29 May - 01:08:00 10° WNW 01:11:18 88° SSW 01:14:35 10° ESE visible
29 May - 02:44:53 10° W 02:47:29 21° SW 02:50:02 10° SSE visible
29 May - 19:28:16 10° SSE 19:29:57 13° SE 19:31:38 10° ESE daylight
29 May - 21:02:40 10° SW 21:05:55 61° SSE 21:09:11 10° ENE daylight
29 May - 22:39:13 10° W 22:42:29 56° N 22:45:45 10° ENE visible
30 May - 00:15:54 10° WNW 00:19:12 71° NNE 00:22:30 10° E visible
30 May - 01:52:33 10° W 01:55:34 34° SSW 01:58:34 10° SSE visible
30 May - 20:10:48 10° SW 20:13:55 39° SSE 20:17:02 10° ENE daylight
30 May - 21:47:03 10° W 21:50:20 65° NNW 21:53:37 10° ENE visible
30 May - 23:23:48 10° WNW 23:27:04 59° N 23:30:20 10° E visible
31 May - 01:00:22 10° WNW 01:03:35 52° SSW 01:06:47 10° SE visible
31 May - 02:38:31 10° WSW 02:39:29 11° SW 02:40:25 10° SSW visible
31 May - 19:19:11 10° SSW 19:21:57 25° SE 19:24:45 10° E daylight
31 May - 20:54:54 10° WSW 20:58:13 83° NNW 21:01:32 10° ENE daylight
31 May - 22:31:39 10° WNW 22:34:54 54° N 22:38:09 10° E visible
01 Jun - 00:08:13 10° WNW 00:11:32 78° SSW 00:14:49 10° ESE visible
01 Jun - 01:45:18 10° W 01:47:38 18° SW 01:49:57 10° S visible
01 Jun - 18:27:57 10° S 18:30:04 16° SE 18:32:11 10° E daylight
01 Jun - 20:02:50 10° WSW 20:06:07 71° SSE 20:09:24 10° ENE daylight
01 Jun - 21:39:27 10° W 21:42:43 55° N 21:45:59 10° ENE daylight
01 Jun - 23:16:06 10° WNW 23:19:26 77° NNE 23:22:43 10° ESE visible
02 Jun - 00:52:49 10° W 00:55:43 28° SW 00:58:35 10° SSE visible
02 Jun - 19:10:52 10° SW 19:14:03 47° SSE 19:17:15 10° ENE daylight
02 Jun - 20:47:15 10° W 20:50:31 61° N 20:53:48 10° ENE daylight
02 Jun - 22:23:58 10° WNW 22:27:16 62° N 22:30:32 10° E visible
03 Jun - 00:00:32 10° WNW 00:03:43 44° SSW 00:06:52 10° SE visible
03 Jun - 18:19:06 10° SSW 18:22:02 30° SE 18:24:59 10° E daylight
03 Jun - 19:55:03 10° WSW 19:58:21 75° NNW 20:01:40 10° ENE daylight
03 Jun - 21:31:48 10° WNW 21:35:03 55° N 21:38:19 10° E daylight
03 Jun - 23:08:21 10° WNW 23:11:39 68° SSW 23:14:55 10° ESE visible
04 Jun - 00:45:40 10° W 00:47:40 15° SW 00:49:39 10° S visible
04 Jun - 17:27:39 10° S 17:30:05 19° SE 17:32:30 10° E daylight
04 Jun - 19:02:54 10° WSW 19:06:12 81° SSE 19:09:30 10° ENE daylight
04 Jun - 20:39:35 10° W 20:42:50 54° N 20:46:06 10° ENE daylight
04 Jun - 22:16:12 10° WNW 22:19:31 85° NNE 22:22:49 10° ESE visible
04 Jun - 23:53:00 10° W 23:55:44 24° SW 23:58:27 10° SSE visible
